Location: Les Bons Fils
(43.5377°N, 5.3042°E)
Time: 16:30:19
(UTC+00:00)

Daily predictions for brighter satellites

Satellite Brightness Start Highest point End
(mag) Time Altitude Azimuth Time Altitude Azimuth Time Altitude Azimuth
Cosmos 1825 Rocket 4.3 17:00:18 10° SSE 17:04:06 30° E 17:07:55 10° NNE
Cosmos 494 Rocket 3.9 16:59:55 10° NNW 17:05:03 78° ENE 17:10:10 10° SSE
ATLAS CENTAUR R/B 4.2 17:00:02 10° W 17:05:08 48° NNW 17:18:42 10° NE
SMAP 3.1 17:01:18 10° SSE 17:05:58 88° ENE 17:10:38 10° NNW
Cosmos 2237 Rocket 2.2 17:00:23 10° NNW 17:06:00 63° ENE 17:11:33 10° SE
Nadezhda 3 Rocket 4.0 17:00:54 10° N 17:07:13 78° E 17:13:34 10° SSE
Okean-O 3.0 17:03:08 10° SE 17:07:19 43° ENE 17:11:32 10° N
PSLV R/B 4.1 17:04:14 10° N 17:08:19 78° WNW 17:12:25 10° SSW
ATLAS 5 CENTAUR R/B 4.0 17:08:31 10° WNW 17:10:59 14° NNW 17:13:36 10° N
Shenzhou-11 Module 2.6 17:12:01 10° SW 17:14:34 39° SSE 17:17:07 10° E
Cosmos 2333 Rocket 3.9 17:11:22 10° NW 17:16:38 39° WSW 17:21:51 10° S
Cosmos 1455 3.2 17:14:11 10° NNE 17:17:22 25° ENE 17:20:32 10° SE
CZ-4C R/B 3.6 17:11:54 10° NW 17:19:12 66° WSW 17:27:25 10° SSE
Atlas Centaur 2 4.1 17:17:52 10° S 17:19:22 11° SSE 17:20:57 10° SE
CORIOLIS 4.3 17:18:19 10° S 17:23:41 79° WSW 17:29:04 10° NNW
SL-8 Rocket 4.3 17:18:15 10° SSE 17:24:12 46° E 17:30:09 10° NNE
USA 234 3.3 17:19:15 10° SE 17:25:48 90° SE 17:32:23 10° NW
ISS -3.8 17:23:40 10° SW 17:27:03 84° SSE 17:30:00 13° ENE
SKYMED 2 3.9 17:22:56 10° NNE 17:27:07 45° E 17:31:16 10° S
SL-16 R/B 2.7 17:24:24 10° NNW 17:29:43 38° ENE 17:34:58 10° SE
ATLAS CENTAUR R/B 2.8 17:27:22 10° N 17:30:15 18° NE 17:32:07 14° ENE
CZ-4 R/B 1.9 17:26:56 10° SE 17:30:43 38° ENE 17:34:34 10° N
Cosmos-2242 3.1 17:29:05 10° N 17:33:19 53° ENE 17:37:29 10° SSE
Cosmos 1812 Rocket 4.4 17:30:39 10° NNW 17:35:03 56° W 17:39:25 10° S
Cosmos 2219 3.5 17:30:08 10° SSW 17:35:43 70° WNW 17:41:22 10° NNE
Cosmos 2341 Rocket 4.0 17:30:09 10° S 17:36:32 79° E 17:42:53 10° N
Cosmos 2082 4.0 17:31:23 10° S 17:36:44 47° ESE 17:42:07 10° NE
YAOGAN 1 2.9 17:38:43 10° SE 17:42:47 42° ENE 17:46:52 10° N
Cosmos 2297 Rocket 2.3 17:38:51 10° SSW 17:44:30 83° WNW 17:50:12 10° NNE
Iridium 96 3.4 17:43:24 10° N 17:45:47 66° E 17:48:16 10° S
H-2A ROCKET BODY 4.2 17:38:30 10° WSW 17:47:24 21° SSW 17:51:05 10° SSE
H-2A R/B 3.8 17:49:40 12° NE 17:49:40 12° NE 17:50:40 10° NNE
Cosmos 1980 4.5 17:43:26 10° NNW 17:49:01 57° WSW 17:54:33 10° S
Cosmos 1328 4.0 17:46:02 10° S 17:49:54 50° E 17:53:49 10° NNE
Meteor 1-21 Rocket 4.3 17:44:32 10° SSW 17:50:08 82° W 17:55:54 10° N
Cosmos 2251 Rocket 3.8 17:45:45 10° N 17:50:50 45° ENE 17:55:55 10° SE
ADEOS Rocket 4.0 17:47:17 10° NNE 17:53:21 34° E 17:59:53 10° SSE
Cosmos 1356 Rocket 4.0 17:51:55 10° N 17:55:35 32° ENE 17:59:17 10° SE
Meteor 2-10 Rocket 3.4 17:50:19 10° N 17:55:37 72° ENE 18:00:41 10° SSE
Cosmos 2263 Rocket 4.0 17:53:55 10° ESE 17:54:46 12° ESE 17:54:46 12° ESE
ERBS 4.1 17:53:46 10° W 17:56:35 25° NNW 17:58:46 14° NNE
SL-8 R/B 3.7 17:52:03 10° WSW 17:56:54 83° NNW 17:59:55 23° ENE
CZ-4 R/B 4.4 17:52:55 10° SSE 17:57:03 87° ENE 18:01:11 10° NNW
Cosmos 2227 Rocket 2.4 17:51:44 10° SSW 17:57:23 73° WNW 18:03:03 10° NNE
USA 32 4.5 17:52:51 10° SSW 17:58:02 65° W 18:03:15 10° N
FengYun 1-2 T 4.4 17:53:28 10° S 17:59:06 78° WSW 18:04:48 10° NNW
NOAA 11 4.2 17:53:47 10° SSE 17:59:10 59° ENE 18:04:35 10° N
Cosmos 864 Rocket 4.4 17:55:37 10° S 18:01:40 68° E 18:07:46 10° NNE
Cosmos 1339 Rocket 4.4 17:56:18 10° N 18:02:25 79° E 18:08:34 10° S
Cosmos 2218 Rocket 4.0 17:57:05 10° S 18:03:24 78° E 18:09:49 10° N
Cosmos 1953 Rocket 3.9 18:08:56 10° SSW 18:13:24 70° W 18:17:54 10° N
Cosmos 1943 4.4 18:10:33 10° N 18:14:37 22° NE 18:14:37 22° NE
COSMO-SKYMED 1 3.3 18:10:59 10° N 18:15:14 54° WNW 18:19:27 10° SSW
DELTA 2 R/B (1) 4.0 18:10:16 10° W 18:15:44 57° S 18:18:56 25° ESE
Cosmos 1842 Rocket 3.8 18:14:40 10° N 18:19:00 47° ENE 18:23:19 10° SSE
SWAS 4.4 18:15:54 10° SSW 18:20:09 62° ESE 18:21:41 37° NE
Cosmos 1703 3.6 18:19:53 10° SSW 18:23:49 65° W 18:27:47 10° N
Cosmos 44 3.8 18:20:02 10° SW 18:24:30 52° NW 18:27:21 20° NNE
CSL-04 Debris 4.3 18:22:29 10° S 18:27:51 76° WSW 18:33:17 10° NNW
Cosmos 1939 Rocket 2.9 18:26:01 10° S 18:29:55 79° WSW 18:33:55 10° NNW
USA 267 4.4 18:30:18 18° NE 18:34:17 34° NNW 18:40:00 10° WNW
Cosmos 2366 rocket 4.3 18:28:28 10° SSW 18:34:38 66° W 18:40:55 10° N
BREEZE-M DEB (TANK) 3.4 18:33:26 10° W 18:35:08 35° NW 18:35:08 35° NW
Meteor 2-12 Rocket 4.3 18:31:25 10° S 18:37:27 76° E 18:43:30 10° NNE
BREEZE-M DEB (TANK) 4.4 18:24:11 10° W 18:41:16 56° N 18:43:09 39° NE
Shenzhou-11 Module 4.3 18:46:49 10° W 18:47:57 22° W 18:47:57 22° W
Ariane Rocket 2.8 18:49:20 10° SSE 18:54:23 85° ENE 18:59:31 10° NNW
Cosmos 44 Rocket 3.6 18:53:08 10° SSW 18:56:57 51° S 18:56:57 51° S
ISS -1.4 19:01:16 10° WNW 19:02:58 21° NW 19:02:58 21° NW
Cosmos 2221 3.9 18:59:55 10° NNW 19:02:03 29° NNW 19:02:03 29° NNW
CZ-4 R/B 4.2 19:03:03 10° SW 19:05:53 18° W 19:08:47 10° NW
Atlas Centaur 2 3.7 19:03:33 10° SW 19:07:10 20° S 19:07:10 20° S
ATLAS CENTAUR R/B 2.5 19:05:40 10° NW 19:08:23 37° WNW 19:08:23 37° WNW
SL-16 R/B 3.8 19:08:42 10° NW 19:13:44 33° WSW 19:18:43 10° SSW
Cosmos 2227 4.3 19:09:14 10° SSW 19:14:12 67° S 19:14:12 67° S
Cosmos 1603 4.1 19:21:01 10° NNW 19:25:18 53° NNW 19:25:18 53° NNW
H-2A R/B 3.8 19:30:16 22° NNW 19:30:16 22° NNW 19:32:05 10° NNW
USA 238 DEB 4.1 19:23:58 10° SSW 19:28:45 48° S 19:28:45 48° S
USA 238 4.1 19:24:06 10° SSW 19:28:48 47° S 19:28:48 47° S
ADEOS Rocket 4.1 19:32:33 10° N 19:38:56 50° WNW 19:45:56 10° SW
Cosmos 2263 Rocket 3.5 19:33:54 10° SSW 19:36:32 29° SSW 19:36:32 29° SSW
BREEZE-M DEB (TANK) 4.3 19:43:24 10° WNW 20:05:42 81° NNW 20:05:42 81° NNW
FALCON 9 R/B 4.5 20:22:25 10° WSW 20:27:43 23° SW 20:27:43 23° SW
